Station Historical Data
Daily Summary for February 4, 2017 Units:  English    Metric   Both
« Previous Day
Next Day »
Daily Weekly Monthly Yearly Custom
  High: Low: Average:
Temperature: 27.9 °F 15.4 °F 22.4 °F
Dew Point: 19.6 °F 6.8 °F 12.7 °F
Humidity: 73% 56% 66%
Wind Speed: 19.0mph 1.0mph 6.9mph
Wind Gust: 29.0mph - -
Wind- - WSW
Pressure: 30.40 in 30.11 in -
Precipitation: 0.00 in    
Historical Graphs
 
 
Tabular Data for February 4, 2017
Time Temperature Dew Point Pressure Wind Wind Speed Wind Gust Humidity Rainfall Rate (Hourly)
00:04 18.4 °F 8.9 °F 30.36 in SW 7.0 mph 14.0 mph 66% 0.00 in
00:09 18.5 °F 9.0 °F 30.35 in WSW 9.0 mph 13.0 mph 66% 0.00 in
00:14 18.6 °F 8.8 °F 30.35 in West 5.0 mph 14.0 mph 65% 0.00 in
00:19 18.6 °F 8.8 °F 30.35 in SW 12.0 mph 21.0 mph 65% 0.00 in
00:24 18.7 °F 8.9 °F 30.35 in West 5.0 mph 15.0 mph 65% 0.00 in
00:29 18.7 °F 8.9 °F 30.35 in West 8.0 mph 18.0 mph 65% 0.00 in
00:34 18.7 °F 8.9 °F 30.35 in West 7.0 mph 18.0 mph 65% 0.00 in
00:39 18.8 °F 8.6 °F 30.35 in WSW 6.0 mph 13.0 mph 64% 0.00 in
00:44 18.9 °F 8.7 °F 30.36 in West 6.0 mph 14.0 mph 64% 0.00 in
00:49 18.9 °F 8.7 °F 30.36 in West 7.0 mph 16.0 mph 64% 0.00 in
00:54 19.0 °F 8.5 °F 30.36 in West 8.0 mph 17.0 mph 63% 0.00 in
00:59 19.0 °F 8.5 °F 30.36 in West 9.0 mph 11.0 mph 63% 0.00 in
01:04 19.0 °F 8.5 °F 30.36 in WSW 7.0 mph 13.0 mph 63% 0.00 in
01:09 18.9 °F 8.4 °F 30.36 in WSW 9.0 mph 17.0 mph 63% 0.00 in
01:14 19.0 °F 8.5 °F 30.36 in WSW 4.0 mph 17.0 mph 63% 0.00 in
01:19 19.0 °F 8.5 °F 30.36 in WSW 10.0 mph 13.0 mph 63% 0.00 in
01:24 19.0 °F 8.5 °F 30.36 in WSW 7.0 mph 16.0 mph 63% 0.00 in
01:29 19.0 °F 8.5 °F 30.36 in West 9.0 mph 12.0 mph 63% 0.00 in
01:34 19.0 °F 8.8 °F 30.36 in West 6.0 mph 12.0 mph 64% 0.00 in
01:39 19.0 °F 8.5 °F 30.35 in West 6.0 mph 14.0 mph 63% 0.00 in
01:44 19.0 °F 8.5 °F 30.35 in West 7.0 mph 14.0 mph 63% 0.00 in
01:49 19.0 °F 8.5 °F 30.35 in West 7.0 mph 14.0 mph 63% 0.00 in
01:54 19.1 °F 8.2 °F 30.35 in West 8.0 mph 15.0 mph 62% 0.00 in
01:59 19.0 °F 8.5 °F 30.36 in West 8.0 mph 12.0 mph 63% 0.00 in
02:04 19.0 °F 8.1 °F 30.35 in West 7.0 mph 14.0 mph 62% 0.00 in
02:09 18.8 °F 7.9 °F 30.36 in West 7.0 mph 16.0 mph 62% 0.00 in
02:14 18.6 °F 7.7 °F 30.36 in SW 7.0 mph 10.0 mph 62% 0.00 in
02:19 18.5 °F 7.6 °F 30.36 in WSW 3.0 mph 17.0 mph 62% 0.00 in
02:24 18.5 °F 7.6 °F 30.36 in WNW 9.0 mph 14.0 mph 62% 0.00 in
02:29 18.5 °F 7.6 °F 30.36 in WSW 8.0 mph 15.0 mph 62% 0.00 in
02:34 18.6 °F 7.7 °F 30.36 in West 9.0 mph 14.0 mph 62% 0.00 in
02:39 18.5 °F 7.6 °F 30.36 in WSW 7.0 mph 14.0 mph 62% 0.00 in
02:44 18.5 °F 7.6 °F 30.36 in WSW 7.0 mph 16.0 mph 62% 0.00 in
02:49 18.5 °F 7.6 °F 30.36 in West 7.0 mph 16.0 mph 62% 0.00 in
02:54 18.5 °F 7.6 °F 30.36 in West 7.0 mph 15.0 mph 62% 0.00 in
02:59 18.4 °F 7.5 °F 30.36 in WSW 7.0 mph 15.0 mph 62% 0.00 in
03:04 18.4 °F 7.5 °F 30.36 in WSW 7.0 mph 15.0 mph 62% 0.00 in
03:09 18.3 °F 7.4 °F 30.36 in West 7.0 mph 11.0 mph 62% 0.00 in
03:14 18.3 °F 7.4 °F 30.36 in WSW 7.0 mph 15.0 mph 62% 0.00 in
03:19 18.2 °F 7.3 °F 30.36 in West 11.0 mph 15.0 mph 62% 0.00 in
03:24 18.2 °F 7.3 °F 30.36 in West 8.0 mph 14.0 mph 62% 0.00 in
03:29 18.1 °F 7.3 °F 30.36 in WSW 7.0 mph 19.0 mph 62% 0.00 in
03:34 18.0 °F 7.2 °F 30.36 in WSW 3.0 mph 14.0 mph 62% 0.00 in
03:39 18.1 °F 7.3 °F 30.36 in WSW 6.0 mph 14.0 mph 62% 0.00 in
03:44 18.1 °F 7.3 °F 30.37 in WSW 8.0 mph 17.0 mph 62% 0.00 in
03:49 18.0 °F 7.2 °F 30.36 in WSW 7.0 mph 17.0 mph 62% 0.00 in
03:54 17.9 °F 7.1 °F 30.36 in WSW 6.0 mph 16.0 mph 62% 0.00 in
03:59 17.8 °F 7.0 °F 30.36 in WSW 7.0 mph 16.0 mph 62% 0.00 in
04:04 17.7 °F 6.9 °F 30.37 in WSW 6.0 mph 16.0 mph 62% 0.00 in
04:09 17.5 °F 7.0 °F 30.37 in WSW 5.0 mph 11.0 mph 63% 0.00 in
04:14 17.6 °F 6.8 °F 30.37 in West 3.0 mph 12.0 mph 62% 0.00 in
04:19 17.6 °F 7.1 °F 30.37 in West 10.0 mph 13.0 mph 63% 0.00 in
04:24 17.6 °F 7.1 °F 30.37 in WSW 6.0 mph 10.0 mph 63% 0.00 in
04:29 17.3 °F 6.8 °F 30.36 in SW 6.0 mph 8.0 mph 63% 0.00 in
04:34 17.2 °F 7.1 °F 30.37 in WSW 4.0 mph 11.0 mph 64% 0.00 in
04:39 17.1 °F 7.0 °F 30.37 in West 4.0 mph 10.0 mph 64% 0.00 in
04:44 17.0 °F 6.9 °F 30.37 in West 6.0 mph 11.0 mph 64% 0.00 in
04:49 17.0 °F 7.3 °F 30.37 in West 5.0 mph 11.0 mph 65% 0.00 in
04:54 17.1 °F 7.3 °F 30.37 in West 5.0 mph 11.0 mph 65% 0.00 in
04:59 17.0 °F 7.3 °F 30.37 in West 5.0 mph 10.0 mph 65% 0.00 in
05:04 16.9 °F 7.2 °F 30.37 in West 4.0 mph 11.0 mph 65% 0.00 in
05:09 17.1 °F 7.3 °F 30.37 in West 5.0 mph 13.0 mph 65% 0.00 in
05:14 17.0 °F 7.3 °F 30.38 in West 3.0 mph 12.0 mph 65% 0.00 in
05:19 17.1 °F 7.3 °F 30.38 in West 6.0 mph 12.0 mph 65% 0.00 in
05:24 16.9 °F 7.5 °F 30.38 in WSW 1.0 mph 7.0 mph 66% 0.00 in
05:29 16.9 °F 7.5 °F 30.38 in WNW 7.0 mph 9.0 mph 66% 0.00 in
05:34 16.8 °F 7.4 °F 30.38 in NW 6.0 mph 13.0 mph 66% 0.00 in
05:39 16.7 °F 7.3 °F 30.38 in SSW 3.0 mph 10.0 mph 66% 0.00 in
05:44 16.7 °F 7.3 °F 30.38 in WNW 3.0 mph 11.0 mph 66% 0.00 in
05:49 16.4 °F 7.3 °F 30.38 in WNW 4.0 mph 8.0 mph 67% 0.00 in
05:54 16.4 °F 7.3 °F 30.38 in West 5.0 mph 10.0 mph 67% 0.00 in
05:59 16.1 °F 7.1 °F 30.38 in West 5.0 mph 10.0 mph 67% 0.00 in
06:04 16.1 °F 7.1 °F 30.38 in West 4.0 mph 10.0 mph 67% 0.00 in
06:09 15.9 °F 6.9 °F 30.38 in West 4.0 mph 11.0 mph 67% 0.00 in
06:14 15.8 °F 7.1 °F 30.38 in West 7.0 mph 8.0 mph 68% 0.00 in
06:19 15.8 °F 7.1 °F 30.38 in WNW 2.0 mph 9.0 mph 68% 0.00 in
06:24 15.8 °F 7.1 °F 30.38 in West 5.0 mph 9.0 mph 68% 0.00 in
06:29 15.7 °F 7.0 °F 30.38 in West 4.0 mph 12.0 mph 68% 0.00 in
06:34 15.8 °F 7.1 °F 30.38 in West 3.0 mph 10.0 mph 68% 0.00 in
06:39 15.6 °F 7.2 °F 30.38 in West 4.0 mph 8.0 mph 69% 0.00 in
06:44 15.6 °F 7.2 °F 30.38 in WSW 4.0 mph 8.0 mph 69% 0.00 in
06:49 15.5 °F 7.1 °F 30.38 in SW 3.0 mph 7.0 mph 69% 0.00 in
06:54 15.4 °F 7.0 °F 30.39 in West 5.0 mph 7.0 mph 69% 0.00 in
06:59 15.4 °F 7.0 °F 30.39 in West 4.0 mph 10.0 mph 69% 0.00 in
07:04 15.5 °F 7.5 °F 30.39 in West 4.0 mph 11.0 mph 70% 0.00 in
07:09 15.5 °F 7.5 °F 30.39 in West 4.0 mph 11.0 mph 70% 0.00 in
07:14 15.7 °F 7.6 °F 30.39 in West 5.0 mph 10.0 mph 70% 0.00 in
07:19 15.8 °F 7.7 °F 30.39 in West 5.0 mph 10.0 mph 70% 0.00 in
07:24 15.8 °F 7.7 °F 30.39 in WSW 5.0 mph 10.0 mph 70% 0.00 in
07:29 15.9 °F 7.8 °F 30.39 in West 6.0 mph 12.0 mph 70% 0.00 in
07:34 16.1 °F 8.0 °F 30.39 in West 5.0 mph 10.0 mph 70% 0.00 in
07:39 16.1 °F 8.0 °F 30.39 in West 3.0 mph 10.0 mph 70% 0.00 in
07:44 16.3 °F 8.2 °F 30.39 in WSW 4.0 mph 8.0 mph 70% 0.00 in
07:49 16.3 °F 8.5 °F 30.39 in West 2.0 mph 7.0 mph 71% 0.00 in
07:54 16.4 °F 8.6 °F 30.38 in West 2.0 mph 7.0 mph 71% 0.00 in
07:59 16.7 °F 8.9 °F 30.39 in West 7.0 mph 8.0 mph 71% 0.00 in
08:04 16.8 °F 9.0 °F 30.39 in West 4.0 mph 10.0 mph 71% 0.00 in
08:09 17.1 °F 9.3 °F 30.39 in West 5.0 mph 11.0 mph 71% 0.00 in
08:14 16.9 °F 9.1 °F 30.39 in West 5.0 mph 11.0 mph 71% 0.00 in
08:19 17.0 °F 9.2 °F 30.39 in West 5.0 mph 11.0 mph 71% 0.00 in
08:24 17.0 °F 9.2 °F 30.39 in WSW 3.0 mph 10.0 mph 71% 0.00 in
08:29 16.9 °F 9.1 °F 30.39 in WSW 3.0 mph 10.0 mph 71% 0.00 in
08:34 17.1 °F 9.3 °F 30.39 in WSW 4.0 mph 14.0 mph 71% 0.00 in
08:39 17.5 °F 9.7 °F 30.40 in West 6.0 mph 14.0 mph 71% 0.00 in
08:44 17.7 °F 9.9 °F 30.40 in West 6.0 mph 11.0 mph 71% 0.00 in
08:49 17.9 °F 10.1 °F 30.40 in SW 3.0 mph 9.0 mph 71% 0.00 in
08:54 18.0 °F 10.2 °F 30.40 in WSW 5.0 mph 8.0 mph 71% 0.00 in
08:59 18.1 °F 10.3 °F 30.39 in West 6.0 mph 11.0 mph 71% 0.00 in
09:04 18.4 °F 10.6 °F 30.39 in West 7.0 mph 9.0 mph 71% 0.00 in
09:09 18.4 °F 10.9 °F 30.39 in West 4.0 mph 9.0 mph 72% 0.00 in
09:14 18.7 °F 11.2 °F 30.40 in West 3.0 mph 9.0 mph 72% 0.00 in
09:19 18.9 °F 11.4 °F 30.40 in West 4.0 mph 9.0 mph 72% 0.00 in
09:24 19.2 °F 12.0 °F 30.40 in WNW 3.0 mph 8.0 mph 73% 0.00 in
09:29 19.7 °F 12.1 °F 30.40 in WSW 8.0 mph 10.0 mph 72% 0.00 in
09:34 20.1 °F 12.5 °F 30.40 in WSW 4.0 mph 8.0 mph 72% 0.00 in
09:39 20.6 °F 12.7 °F 30.40 in West 5.0 mph 10.0 mph 71% 0.00 in
09:44 21.2 °F 13.3 °F 30.39 in West 6.0 mph 19.0 mph 71% 0.00 in
09:49 21.8 °F 13.5 °F 30.39 in West 3.0 mph 15.0 mph 70% 0.00 in
09:54 22.0 °F 13.7 °F 30.39 in West 9.0 mph 16.0 mph 70% 0.00 in
09:59 22.4 °F 13.8 °F 30.39 in West 11.0 mph 20.0 mph 69% 0.00 in
10:04 22.8 °F 13.8 °F 30.39 in SW 14.0 mph 19.0 mph 68% 0.00 in
10:09 23.0 °F 13.7 °F 30.39 in West 10.0 mph 19.0 mph 67% 0.00 in
10:14 23.2 °F 13.9 °F 30.39 in West 9.0 mph 19.0 mph 67% 0.00 in
10:19 23.3 °F 14.0 °F 30.39 in West 8.0 mph 17.0 mph 67% 0.00 in
10:24 23.6 °F 14.2 °F 30.39 in WSW 9.0 mph 17.0 mph 67% 0.00 in
10:29 23.7 °F 14.3 °F 30.39 in WSW 9.0 mph 17.0 mph 67% 0.00 in
10:34 23.7 °F 14.3 °F 30.39 in WSW 10.0 mph 16.0 mph 67% 0.00 in
10:39 23.9 °F 14.5 °F 30.39 in WSW 10.0 mph 22.0 mph 67% 0.00 in
10:44 24.0 °F 14.6 °F 30.39 in WSW 11.0 mph 22.0 mph 67% 0.00 in
10:49 24.2 °F 15.2 °F 30.39 in SW 7.0 mph 13.0 mph 68% 0.00 in
10:54 24.3 °F 15.3 °F 30.38 in WNW 4.0 mph 14.0 mph 68% 0.00 in
10:59 24.3 °F 14.9 °F 30.38 in WSW 4.0 mph 11.0 mph 67% 0.00 in
11:04 24.5 °F 15.4 °F 30.38 in West 6.0 mph 10.0 mph 68% 0.00 in
11:09 24.6 °F 15.2 °F 30.37 in West 10.0 mph 23.0 mph 67% 0.00 in
11:14 24.7 °F 14.9 °F 30.37 in West 10.0 mph 23.0 mph 66% 0.00 in
11:19 24.8 °F 14.7 °F 30.37 in West 10.0 mph 20.0 mph 65% 0.00 in
11:24 24.9 °F 14.8 °F 30.37 in West 11.0 mph 22.0 mph 65% 0.00 in
11:29 25.0 °F 14.9 °F 30.37 in West 11.0 mph 22.0 mph 65% 0.00 in
11:34 25.4 °F 15.6 °F 30.36 in West 9.0 mph 19.0 mph 66% 0.00 in
11:39 25.4 °F 15.6 °F 30.36 in WSW 13.0 mph 20.0 mph 66% 0.00 in
11:44 25.5 °F 15.7 °F 30.36 in WSW 16.0 mph 24.0 mph 66% 0.00 in
11:49 25.4 °F 15.6 °F 30.35 in WSW 11.0 mph 24.0 mph 66% 0.00 in
11:54 25.8 °F 16.7 °F 30.35 in West 9.0 mph 27.0 mph 68% 0.00 in
11:59 25.8 °F 16.3 °F 30.35 in West 12.0 mph 18.0 mph 67% 0.00 in
12:04 26.3 °F 16.8 °F 30.34 in West 10.0 mph 17.0 mph 67% 0.00 in
12:09 26.2 °F 16.7 °F 30.34 in NNW 11.0 mph 19.0 mph 67% 0.00 in
12:14 26.3 °F 17.2 °F 30.33 in West 6.0 mph 22.0 mph 68% 0.00 in
12:19 26.4 °F 17.3 °F 30.33 in WSW 9.0 mph 22.0 mph 68% 0.00 in
12:24 26.6 °F 17.5 °F 30.33 in WSW 9.0 mph 21.0 mph 68% 0.00 in
12:29 26.7 °F 17.9 °F 30.33 in WSW 10.0 mph 21.0 mph 69% 0.00 in
12:34 26.5 °F 17.7 °F 30.33 in WSW 10.0 mph 21.0 mph 69% 0.00 in
12:39 26.6 °F 17.8 °F 30.32 in WSW 9.0 mph 21.0 mph 69% 0.00 in
12:44 26.4 °F 17.3 °F 30.32 in WSW 9.0 mph 26.0 mph 68% 0.00 in
12:49 26.5 °F 17.0 °F 30.32 in WSW 9.0 mph 23.0 mph 67% 0.00 in
12:54 26.9 °F 16.7 °F 30.32 in SW 11.0 mph 25.0 mph 65% 0.00 in
12:59 26.9 °F 16.3 °F 30.32 in SW 7.0 mph 22.0 mph 64% 0.00 in
13:04 27.2 °F 17.0 °F 30.32 in WSW 12.0 mph 27.0 mph 65% 0.00 in
13:09 27.7 °F 16.4 °F 30.31 in West 16.0 mph 24.0 mph 62% 0.00 in
13:14 27.8 °F 16.8 °F 30.31 in South 10.0 mph 20.0 mph 63% 0.00 in
13:19 27.9 °F 17.3 °F 30.32 in West 19.0 mph 29.0 mph 64% 0.00 in
13:24 27.4 °F 17.2 °F 30.31 in WSW 13.0 mph 29.0 mph 65% 0.00 in
13:29 27.7 °F 17.1 °F 30.31 in WSW 13.0 mph 27.0 mph 64% 0.00 in
13:34 27.1 °F 16.5 °F 30.31 in WSW 13.0 mph 27.0 mph 64% 0.00 in
13:39 26.9 °F 16.3 °F 30.31 in WSW 13.0 mph 26.0 mph 64% 0.00 in
13:44 27.0 °F 16.4 °F 30.31 in WSW 12.0 mph 22.0 mph 64% 0.00 in
13:49 26.9 °F 16.7 °F 30.31 in WSW 12.0 mph 21.0 mph 65% 0.00 in
13:54 27.1 °F 16.5 °F 30.31 in WSW 7.0 mph 22.0 mph 64% 0.00 in
13:59 27.4 °F 16.4 °F 30.30 in SW 12.0 mph 21.0 mph 63% 0.00 in
14:04 27.8 °F 16.8 °F 30.30 in WNW 18.0 mph 24.0 mph 63% 0.00 in
14:09 27.9 °F 16.9 °F 30.30 in West 6.0 mph 22.0 mph 63% 0.00 in
14:14 27.2 °F 16.6 °F 30.30 in WSW 18.0 mph 22.0 mph 64% 0.00 in
14:19 27.0 °F 16.4 °F 30.30 in WNW 12.0 mph 22.0 mph 64% 0.00 in
14:24 27.5 °F 17.3 °F 30.30 in SSW 15.0 mph 25.0 mph 65% 0.00 in
14:29 27.9 °F 16.9 °F 30.30 in WSW 13.0 mph 25.0 mph 63% 0.00 in
14:34 27.8 °F 17.2 °F 30.30 in WSW 11.0 mph 25.0 mph 64% 0.00 in
14:39 27.4 °F 16.4 °F 30.30 in WSW 12.0 mph 25.0 mph 63% 0.00 in
14:44 27.2 °F 17.0 °F 30.29 in WSW 13.0 mph 26.0 mph 65% 0.00 in
14:49 26.9 °F 16.7 °F 30.30 in SSW 13.0 mph 24.0 mph 65% 0.00 in
14:54 26.7 °F 17.2 °F 30.30 in WSW 17.0 mph 23.0 mph 67% 0.00 in
14:59 26.7 °F 17.6 °F 30.30 in WSW 13.0 mph 24.0 mph 68% 0.00 in
15:04 27.0 °F 17.5 °F 30.29 in WSW 11.0 mph 26.0 mph 67% 0.00 in
15:09 27.1 °F 17.2 °F 30.29 in SW 10.0 mph 24.0 mph 66% 0.00 in
15:14 27.2 °F 17.7 °F 30.29 in SW 10.0 mph 19.0 mph 67% 0.00 in
15:19 26.9 °F 17.4 °F 30.29 in West 13.0 mph 20.0 mph 67% 0.00 in
15:24 27.2 °F 17.7 °F 30.29 in WSW 12.0 mph 24.0 mph 67% 0.00 in
15:29 27.5 °F 18.3 °F 30.29 in WSW 9.0 mph 20.0 mph 68% 0.00 in
15:34 27.7 °F 18.5 °F 30.28 in WSW 9.0 mph 20.0 mph 68% 0.00 in
15:39 27.2 °F 17.7 °F 30.28 in WSW 10.0 mph 19.0 mph 67% 0.00 in
15:44 27.2 °F 18.0 °F 30.28 in WSW 11.0 mph 20.0 mph 68% 0.00 in
15:49 26.9 °F 17.7 °F 30.28 in SW 9.0 mph 19.0 mph 68% 0.00 in
15:54 27.1 °F 17.9 °F 30.28 in SW 13.0 mph 20.0 mph 68% 0.00 in
15:59 27.0 °F 17.8 °F 30.28 in West 14.0 mph 20.0 mph 68% 0.00 in
16:04 26.9 °F 17.7 °F 30.28 in West 11.0 mph 23.0 mph 68% 0.00 in
16:09 27.2 °F 18.0 °F 30.27 in WSW 10.0 mph 23.0 mph 68% 0.00 in
16:14 27.0 °F 18.2 °F 30.27 in WSW 10.0 mph 26.0 mph 69% 0.00 in
16:19 27.0 °F 18.5 °F 30.27 in WSW 9.0 mph 19.0 mph 70% 0.00 in
16:24 26.9 °F 18.4 °F 30.27 in SW 8.0 mph 18.0 mph 70% 0.00 in
16:29 26.9 °F 18.7 °F 30.27 in SSW 13.0 mph 16.0 mph 71% 0.00 in
16:34 27.0 °F 19.2 °F 30.26 in WSW 12.0 mph 16.0 mph 72% 0.00 in
16:39 27.0 °F 19.2 °F 30.26 in WSW 9.0 mph 18.0 mph 72% 0.00 in
16:44 27.1 °F 19.6 °F 30.26 in WSW 9.0 mph 18.0 mph 73% 0.00 in
16:49 27.2 °F 19.4 °F 30.26 in WSW 8.0 mph 14.0 mph 72% 0.00 in
16:54 27.2 °F 19.0 °F 30.26 in WSW 14.0 mph 20.0 mph 71% 0.00 in
16:59 27.1 °F 18.6 °F 30.26 in WSW 10.0 mph 17.0 mph 70% 0.00 in
17:04 27.0 °F 18.5 °F 30.26 in SW 3.0 mph 20.0 mph 70% 0.00 in
17:09 27.0 °F 18.8 °F 30.26 in WSW 8.0 mph 20.0 mph 71% 0.00 in
17:14 27.0 °F 18.8 °F 30.26 in WSW 7.0 mph 14.0 mph 71% 0.00 in
17:19 27.0 °F 18.5 °F 30.26 in WSW 16.0 mph 22.0 mph 70% 0.00 in
17:24 27.0 °F 18.5 °F 30.26 in WSW 12.0 mph 20.0 mph 70% 0.00 in
17:29 26.9 °F 18.4 °F 30.26 in West 15.0 mph 21.0 mph 70% 0.00 in
17:34 26.8 °F 18.0 °F 30.25 in South 6.0 mph 17.0 mph 69% 0.00 in
17:39 26.7 °F 17.9 °F 30.25 in WSW 7.0 mph 13.0 mph 69% 0.00 in
17:44 26.5 °F 17.7 °F 30.26 in WSW 7.0 mph 13.0 mph 69% 0.00 in
17:49 26.5 °F 17.7 °F 30.26 in WSW 7.0 mph 17.0 mph 69% 0.00 in
17:54 26.4 °F 17.6 °F 30.25 in WSW 7.0 mph 17.0 mph 69% 0.00 in
17:59 26.5 °F 17.0 °F 30.25 in WSW 8.0 mph 15.0 mph 67% 0.00 in
18:04 26.6 °F 17.5 °F 30.25 in West 6.0 mph 18.0 mph 68% 0.00 in
18:09 26.6 °F 17.5 °F 30.25 in SSW 6.0 mph 18.0 mph 68% 0.00 in
18:14 26.7 °F 17.2 °F 30.25 in WSW 9.0 mph 18.0 mph 67% 0.00 in
18:19 26.8 °F 15.9 °F 30.25 in WSW 9.0 mph 17.0 mph 63% 0.00 in
18:24 26.8 °F 15.9 °F 30.25 in West 5.0 mph 13.0 mph 63% 0.00 in
18:29 26.7 °F 15.8 °F 30.25 in WSW 7.0 mph 16.0 mph 63% 0.00 in
18:34 26.8 °F 15.9 °F 30.25 in WNW 5.0 mph 12.0 mph 63% 0.00 in
18:39 26.9 °F 16.3 °F 30.24 in WSW 7.0 mph 10.0 mph 64% 0.00 in
18:44 26.9 °F 16.3 °F 30.24 in WSW 9.0 mph 13.0 mph 64% 0.00 in
18:49 27.0 °F 16.4 °F 30.24 in WSW 6.0 mph 13.0 mph 64% 0.00 in
18:54 27.2 °F 16.6 °F 30.23 in WSW 8.0 mph 16.0 mph 64% 0.00 in
18:59 27.4 °F 16.8 °F 30.23 in WSW 8.0 mph 16.0 mph 64% 0.00 in
19:04 27.3 °F 17.1 °F 30.23 in SW 6.0 mph 15.0 mph 65% 0.00 in
19:09 26.5 °F 17.4 °F 30.22 in SSW 5.0 mph 15.0 mph 68% 0.00 in
19:14 25.9 °F 17.5 °F 30.22 in South 4.0 mph 8.0 mph 70% 0.00 in
19:19 25.8 °F 17.4 °F 30.22 in SSW 3.0 mph 9.0 mph 70% 0.00 in
19:24 25.7 °F 17.3 °F 30.22 in South 6.0 mph 9.0 mph 70% 0.00 in
19:29 25.6 °F 17.2 °F 30.21 in SSW 4.0 mph 8.0 mph 70% 0.00 in
19:34 25.4 °F 17.0 °F 30.21 in South 5.0 mph 9.0 mph 70% 0.00 in
19:39 25.1 °F 16.7 °F 30.21 in South 3.0 mph 6.0 mph 70% 0.00 in
19:44 25.0 °F 16.6 °F 30.20 in SSW 3.0 mph 7.0 mph 70% 0.00 in
19:49 24.8 °F 16.4 °F 30.20 in South 4.0 mph 8.0 mph 70% 0.00 in
19:54 24.7 °F 16.0 °F 30.21 in SSW 4.0 mph 9.0 mph 69% 0.00 in
19:59 24.8 °F 16.1 °F 30.20 in SSW 4.0 mph 9.0 mph 69% 0.00 in
20:04 24.7 °F 16.0 °F 30.20 in SSW 4.0 mph 10.0 mph 69% 0.00 in
20:09 24.6 °F 15.9 °F 30.20 in South 4.0 mph 10.0 mph 69% 0.00 in
20:14 24.4 °F 15.7 °F 30.19 in South 3.0 mph 7.0 mph 69% 0.00 in
20:19 24.2 °F 15.5 °F 30.19 in SSW 3.0 mph 6.0 mph 69% 0.00 in
20:24 24.1 °F 15.1 °F 30.19 in South 3.0 mph 7.0 mph 68% 0.00 in
20:29 24.0 °F 15.0 °F 30.19 in SSW 3.0 mph 5.0 mph 68% 0.00 in
20:34 24.0 °F 15.0 °F 30.19 in SSW 5.0 mph 7.0 mph 68% 0.00 in
20:39 24.0 °F 14.3 °F 30.20 in South 3.0 mph 6.0 mph 66% 0.00 in
20:44 24.2 °F 14.1 °F 30.19 in SSW 3.0 mph 6.0 mph 65% 0.00 in
20:49 24.3 °F 13.9 °F 30.19 in SW 3.0 mph 7.0 mph 64% 0.00 in
20:54 24.4 °F 14.0 °F 30.19 in SSW 3.0 mph 7.0 mph 64% 0.00 in
20:59 24.3 °F 13.5 °F 30.19 in SSW 3.0 mph 6.0 mph 63% 0.00 in
21:04 24.2 °F 13.4 °F 30.19 in SSW 3.0 mph 5.0 mph 63% 0.00 in
21:09 24.1 °F 12.9 °F 30.18 in SSW 3.0 mph 5.0 mph 62% 0.00 in
21:14 24.1 °F 12.9 °F 30.18 in SSW 3.0 mph 5.0 mph 62% 0.00 in
21:19 24.0 °F 12.9 °F 30.18 in SSW 2.0 mph 5.0 mph 62% 0.00 in
21:24 24.0 °F 12.9 °F 30.18 in SSW 2.0 mph 5.0 mph 62% 0.00 in
21:29 24.0 °F 12.5 °F 30.18 in SSW 4.0 mph 6.0 mph 61% 0.00 in
21:34 24.0 °F 12.5 °F 30.18 in SSW 4.0 mph 6.0 mph 61% 0.00 in
21:39 24.1 °F 12.2 °F 30.18 in South 4.0 mph 8.0 mph 60% 0.00 in
21:44 24.2 °F 12.3 °F 30.18 in SSW 5.0 mph 7.0 mph 60% 0.00 in
21:49 24.2 °F 11.9 °F 30.17 in South 4.0 mph 7.0 mph 59% 0.00 in
21:54 24.1 °F 12.2 °F 30.17 in South 2.0 mph 6.0 mph 60% 0.00 in
21:59 24.1 °F 12.2 °F 30.17 in SSW 3.0 mph 7.0 mph 60% 0.00 in
22:09 24.1 °F 12.2 °F 30.16 in SSW 4.0 mph 7.0 mph 60% 0.00 in
22:14 24.0 °F 12.1 °F 30.16 in SSW 3.0 mph 7.0 mph 60% 0.00 in
22:19 24.0 °F 12.1 °F 30.16 in SSW 4.0 mph 8.0 mph 60% 0.00 in
22:24 24.0 °F 12.1 °F 30.16 in SSW 4.0 mph 8.0 mph 60% 0.00 in
22:29 24.0 °F 12.1 °F 30.16 in SSW 3.0 mph 8.0 mph 60% 0.00 in
22:34 24.0 °F 12.1 °F 30.16 in South 4.0 mph 6.0 mph 60% 0.00 in
22:39 24.0 °F 11.7 °F 30.16 in South 3.0 mph 7.0 mph 59% 0.00 in
22:44 24.0 °F 12.1 °F 30.15 in South 4.0 mph 6.0 mph 60% 0.00 in
22:49 24.0 °F 12.1 °F 30.15 in SSE 3.0 mph 6.0 mph 60% 0.00 in
22:54 24.1 °F 11.8 °F 30.15 in South 4.0 mph 7.0 mph 59% 0.00 in
22:59 24.3 °F 12.0 °F 30.15 in SSW 4.0 mph 7.0 mph 59% 0.00 in
23:04 24.6 °F 12.3 °F 30.15 in SSW 4.0 mph 8.0 mph 59% 0.00 in
23:09 24.8 °F 12.1 °F 30.14 in SSW 3.0 mph 8.0 mph 58% 0.00 in
23:14 24.8 °F 12.1 °F 30.14 in SSW 3.0 mph 6.0 mph 58% 0.00 in
23:19 24.9 °F 12.2 °F 30.14 in South 3.0 mph 6.0 mph 58% 0.00 in
23:24 25.1 °F 12.0 °F 30.13 in SSW 3.0 mph 6.0 mph 57% 0.00 in
23:29 25.1 °F 12.0 °F 30.13 in SSW 3.0 mph 7.0 mph 57% 0.00 in
23:34 25.3 °F 11.8 °F 30.13 in SSW 3.0 mph 7.0 mph 56% 0.00 in
23:39 25.3 °F 11.8 °F 30.12 in SSW 4.0 mph 6.0 mph 56% 0.00 in
23:44 25.3 °F 11.8 °F 30.12 in SSW 2.0 mph 5.0 mph 56% 0.00 in
23:49 25.3 °F 11.8 °F 30.12 in SSW 2.0 mph 5.0 mph 56% 0.00 in
23:54 25.3 °F 11.8 °F 30.11 in SSW 2.0 mph 7.0 mph 56% 0.00 in
23:59 25.4 °F 12.3 °F 30.11 in SW 2.0 mph 4.0 mph 57% 0.00 in
Buffalo, New York, USA
Compliments of Weather Underground - 2.5 mb